| time (UTC) | temp F | wind direction | speed MPH | gust MPH | rain 1hr in | rain 24hr in | rain mn in | humidity % | barometer mb |
| 20260906181003 | 81 | 88 | 7.0 | 12.0 | 0.00 | 0.00 | 0.00 | 76 | 1012.5 |
| 20260906180503 | 80 | 93 | 8.0 | 15.0 | 0.00 | 0.00 | 0.00 | 73 | 1012.5 |
| 20260906180003 | 81 | 102 | 7.0 | 15.0 | 0.00 | 0.00 | 0.00 | 72 | 1012.6 |
| 20260906175503 | 81 | 97 | 5.0 | 11.0 | 0.00 | 0.00 | 0.00 | 75 | 1012.8 |
| 20260906175024 | 80 | 82 | 7.0 | 13.0 | 0.00 | 0.00 | 0.00 | 76 | 1012.7 |
| 20260906174503 | 80 | 97 | 7.0 | 13.0 | 0.00 | 0.00 | 0.00 | 73 | 1012.8 |
| 20260906174003 | 81 | 106 | 6.0 | 13.0 | 0.00 | 0.00 | 0.00 | 75 | 1012.8 |
| 20260906173503 | 81 | 96 | 7.0 | 12.0 | 0.00 | 0.00 | 0.00 | 76 | 1012.8 |
| 20260906173003 | 80 | 97 | 6.0 | 14.0 | 0.00 | 0.00 | 0.00 | 78 | 1012.7 |
| 20260906172503 | 80 | 83 | 7.0 | 14.0 | 0.00 | 0.00 | 0.00 | 75 | 1012.6 |
| 20260906172003 | 80 | 69 | 7.0 | 13.0 | 0.00 | 0.00 | 0.00 | 78 | 1012.6 |
| 20260906171503 | 80 | 69 | 6.0 | 11.0 | 0.00 | 0.00 | 0.00 | 78 | 1012.7 |
| 20260906171003 | 80 | 80 | 7.0 | 11.0 | 0.00 | 0.00 | 0.00 | 76 | 1012.8 |
| 20260906170503 | 81 | 99 | 7.0 | 14.0 | 0.00 | 0.00 | 0.00 | 79 | 1012.9 |
| 20260906170003 | 80 | 102 | 7.0 | 14.0 | 0.00 | 0.00 | 0.00 | 78 | 1013.0 |
| 20260906165524 | 80 | 96 | 6.0 | 14.0 | 0.00 | 0.00 | 0.00 | 79 | 1013.1 |
| 20260906165024 | 79 | 99 | 5.0 | 11.0 | 0.00 | 0.00 | 0.00 | 79 | 1013.2 |
| 20260906164503 | 79 | 105 | 5.0 | 12.0 | 0.00 | 0.00 | 0.00 | 83 | 1013.1 |
| 20260906164024 | 79 | 101 | 5.0 | 12.0 | 0.00 | 0.00 | 0.00 | 82 | 1013.2 |
| 20260906163503 | 78 | 101 | 6.0 | 12.0 | 0.00 | 0.00 | 0.00 | 82 | 1013.2 |
| 20260906163003 | 78 | 96 | 6.0 | 12.0 | 0.00 | 0.00 | 0.00 | 82 | 1013.2 |
| 20260906162503 | 78 | 82 | 6.0 | 10.0 | 0.00 | 0.00 | 0.00 | 83 | 1013.2 |
| 20260906162003 | 78 | 78 | 6.0 | 10.0 | 0.00 | 0.00 | 0.00 | 84 | 1013.2 |
| 20260906161503 | 78 | 70 | 5.0 | 10.0 | 0.00 | 0.00 | 0.00 | 84 | 1013.2 |
| 20260906161003 | 77 | 69 | 5.0 | 10.0 | 0.00 | 0.00 | 0.00 | 86 | 1013.3 |
| 20260906160503 | 77 | 78 | 4.0 | 9.0 | 0.00 | 0.00 | 0.00 | 84 | 1013.4 |
| 20260906160003 | 77 | 89 | 5.0 | 10.0 | 0.00 | 0.00 | 0.00 | 85 | 1013.4 |
| 20260906155503 | 77 | 87 | 4.0 | 10.0 | 0.00 | 0.00 | 0.00 | 86 | 1013.4 |
| 20260906155024 | 77 | 81 | 5.0 | 11.0 | 0.00 | 0.00 | 0.00 | 86 | 1013.4 |
| 20260906154503 | 77 | 105 | 5.0 | 11.0 | 0.00 | 0.00 | 0.00 | 86 | 1013.5 |
| 20260906154003 | 77 | 119 | 4.0 | 9.0 | 0.00 | 0.00 | 0.00 | 86 | 1013.4 |
| 20260906153503 | 76 | 113 | 4.0 | 9.0 | 0.00 | 0.00 | 0.00 | 89 | 1013.4 |
| 20260906153003 | 75 | 106 | 6.0 | 11.0 | 0.00 | 0.00 | 0.00 | 88 | 1013.4 |
| 20260906152503 | 75 | 102 | 5.0 | 11.0 | 0.00 | 0.00 | 0.00 | 89 | 1013.5 |
| 20260906152003 | 74 | 100 | 5.0 | 11.0 | 0.00 | 0.00 | 0.00 | 91 | 1013.4 |
| 20260906151504 | 74 | 101 | 6.0 | 11.0 | 0.00 | 0.00 | 0.00 | 91 | 1013.4 |
| 20260906151003 | 74 | 102 | 6.0 | 10.0 | 0.00 | 0.00 | 0.00 | 92 | 1013.2 |
| 20260906150503 | 73 | 92 | 6.0 | 11.0 | 0.00 | 0.00 | 0.00 | 92 | 1013.3 |
| 20260906150003 | 73 | 82 | 6.0 | 11.0 | 0.00 | 0.00 | 0.00 | 93 | 1013.2 |
| 20260906145503 | 72 | 72 | 6.0 | 11.0 | 0.00 | 0.00 | 0.00 | 94 | 1013.2 |
| 20260906145003 | 72 | 74 | 6.0 | 11.0 | 0.00 | 0.00 | 0.00 | 93 | 1013.3 |
| 20260906144503 | 72 | 85 | 5.0 | 10.0 | 0.00 | 0.00 | 0.00 | 93 | 1013.2 |
| 20260906144003 | 72 | 91 | 5.0 | 11.0 | 0.00 | 0.00 | 0.00 | 93 | 1013.2 |
| 20260906143503 | 72 | 96 | 5.0 | 12.0 | 0.00 | 0.00 | 0.00 | 94 | 1013.2 |
| 20260906143003 | 72 | 97 | 6.0 | 12.0 | 0.00 | 0.00 | 0.00 | 93 | 1013.2 |
| 20260906142524 | 72 | 90 | 5.0 | 10.0 | 0.00 | 0.00 | 0.00 | 93 | 1013.1 |
| 20260906142003 | 72 | 91 | 6.0 | 14.0 | 0.00 | 0.00 | 0.00 | 94 | 1013.1 |
| 20260906141503 | 72 | 94 | 6.0 | 14.0 | 0.00 | 0.00 | 0.00 | 94 | 1013.0 |
| 20260906141003 | 72 | 88 | 6.0 | 12.0 | 0.00 | 0.00 | 0.00 | 94 | 1012.9 |
| 20260906140503 | 72 | 87 | 6.0 | 10.0 | 0.00 | 0.00 | 0.00 | 94 | 1012.8 |
| 20260906140024 | 72 | 84 | 6.0 | 10.0 | 0.00 | 0.00 | 0.00 | 94 | 1012.8 |
| 20260906135524 | 72 | 82 | 6.0 | 14.0 | 0.00 | 0.00 | 0.00 | 94 | 1012.9 |
| 20260906135003 | 72 | 85 | 5.0 | 14.0 | 0.00 | 0.00 | 0.00 | 94 | 1012.9 |
| 20260906134503 | 72 | 89 | 5.0 | 10.0 | 0.00 | 0.00 | 0.00 | 94 | 1012.9 |
| 20260906134003 | 72 | 83 | 6.0 | 11.0 | 0.00 | 0.00 | 0.00 | 94 | 1012.9 |
| 20260906133503 | 72 | 81 | 6.0 | 11.0 | 0.00 | 0.00 | 0.00 | 94 | 1012.8 |
| 20260906133003 | 72 | 90 | 5.0 | 10.0 | 0.00 | 0.00 | 0.00 | 94 | 1012.7 |
| 20260906132503 | 72 | 89 | 6.0 | 10.0 | 0.00 | 0.00 | 0.00 | 94 | 1012.8 |
| 20260906132003 | 72 | 80 | 5.0 | 10.0 | 0.00 | 0.00 | 0.00 | 94 | 1012.7 |
| 20260906131503 | 72 | 82 | 4.0 | 9.0 | 0.00 | 0.00 | 0.00 | 95 | 1012.7 |
| 20260906131003 | 72 | 90 | 4.0 | 8.0 | 0.00 | 0.00 | 0.00 | 95 | 1012.6 |
| 20260906130503 | 72 | 94 | 5.0 | 10.0 | 0.00 | 0.00 | 0.00 | 95 | 1012.7 |
| 20260906130003 | 72 | 96 | 6.0 | 12.0 | 0.00 | 0.00 | 0.00 | 95 | 1012.6 |
| 20260906125503 | 72 | 94 | 6.0 | 12.0 | 0.00 | 0.00 | 0.00 | 95 | 1012.5 |
| 20260906125024 | 72 | 92 | 6.0 | 12.0 | 0.00 | 0.00 | 0.00 | 95 | 1012.3 |
| 20260906124503 | 72 | 88 | 6.0 | 11.0 | 0.00 | 0.00 | 0.00 | 95 | 1012.4 |
| 20260906124003 | 72 | 87 | 6.0 | 11.0 | 0.00 | 0.00 | 0.00 | 95 | 1012.3 |
| 20260906123503 | 72 | 86 | 5.0 | 10.0 | 0.00 | 0.00 | 0.00 | 95 | 1012.2 |
| 20260906123003 | 72 | 85 | 5.0 | 11.0 | 0.00 | 0.00 | 0.00 | 96 | 1012.2 |
| 20260906122503 | 72 | 88 | 6.0 | 11.0 | 0.00 | 0.00 | 0.00 | 96 | 1012.1 |
| 20260906122024 | 72 | 85 | 6.0 | 11.0 | 0.00 | 0.00 | 0.00 | 96 | 1011.9 |
| 20260906121503 | 72 | 88 | 6.0 | 14.0 | 0.00 | 0.01 | 0.00 | 96 | 1011.8 |
| 20260906121003 | 72 | 92 | 6.0 | 14.0 | 0.00 | 0.01 | 0.00 | 96 | 1011.7 |
| 20260906120503 | 72 | 95 | 7.0 | 14.0 | 0.00 | 0.02 | 0.00 | 96 | 1011.6 |
| 20260906120003 | 72 | 92 | 7.0 | 14.0 | 0.00 | 0.02 | 0.00 | 96 | 1011.5 |
| 20260906115524 | 72 | 92 | 6.0 | 14.0 | 0.00 | 0.02 | 0.00 | 96 | 1011.3 |
| 20260906115003 | 72 | 95 | 5.0 | 12.0 | 0.00 | 0.02 | 0.00 | 96 | 1011.3 |
| 20260906114503 | 71 | 92 | 5.0 | 10.0 | 0.00 | 0.02 | 0.00 | 96 | 1011.3 |
| 20260906114003 | 72 | 91 | 5.0 | 12.0 | 0.00 | 0.02 | 0.00 | 96 | 1011.2 |
| 20260906113524 | 71 | 88 | 7.0 | 13.0 | 0.00 | 0.02 | 0.00 | 96 | 1011.2 |
| 20260906113003 | 71 | 86 | 7.0 | 13.0 | 0.00 | 0.03 | 0.00 | 96 | 1011.3 |
| 20260906112503 | 71 | 84 | 5.0 | 10.0 | 0.00 | 0.03 | 0.00 | 96 | 1011.3 |
| 20260906112003 | 71 | 81 | 4.0 | 9.0 | 0.00 | 0.04 | 0.00 | 96 | 1011.3 |
| 20260906111503 | 71 | 81 | 4.0 | 9.0 | 0.00 | 0.04 | 0.00 | 96 | 1011.2 |
| 20260906111003 | 71 | 79 | 5.0 | 9.0 | 0.00 | 0.07 | 0.00 | 96 | 1011.2 |
| 20260906110524 | 71 | 76 | 5.0 | 9.0 | 0.00 | 0.10 | 0.00 | 96 | 1011.2 |
| 20260906110024 | 71 | 83 | 4.0 | 9.0 | 0.00 | 0.16 | 0.00 | 96 | 1011.1 |
| 20260906105503 | 71 | 79 | 4.0 | 8.0 | 0.00 | 0.23 | 0.00 | 96 | 1011.1 |
| 20260906105003 | 71 | 79 | 5.0 | 10.0 | 0.00 | 0.29 | 0.00 | 96 | 1011.0 |
| 20260906104503 | 71 | 83 | 5.0 | 11.0 | 0.00 | 0.30 | 0.00 | 96 | 1010.9 |
| 20260906104003 | 71 | 78 | 5.0 | 11.0 | 0.00 | 0.30 | 0.00 | 96 | 1010.8 |
| 20260906103503 | 71 | 79 | 5.0 | 9.0 | 0.00 | 0.30 | 0.00 | 96 | 1010.9 |
| 20260906103003 | 71 | 84 | 5.0 | 9.0 | 0.00 | 0.30 | 0.00 | 96 | 1010.8 |
| 20260906102524 | 71 | 84 | 5.0 | 10.0 | 0.00 | 0.30 | 0.00 | 96 | 1010.8 |
| 20260906102003 | 71 | 82 | 6.0 | 10.0 | 0.00 | 0.30 | 0.00 | 96 | 1010.7 |
| 20260906101503 | 71 | 81 | 5.0 | 10.0 | 0.00 | 0.30 | 0.00 | 96 | 1010.8 |
| 20260906101003 | 71 | 84 | 4.0 | 8.0 | 0.00 | 0.30 | 0.00 | 95 | 1010.7 |
| 20260906100503 | 71 | 84 | 4.0 | 7.0 | 0.00 | 0.30 | 0.00 | 95 | 1010.7 |
| 20260906100003 | 72 | 76 | 4.0 | 7.0 | 0.00 | 0.30 | 0.00 | 95 | 1010.6 |
| 20260906095524 | 72 | 75 | 4.0 | 8.0 | 0.00 | 0.30 | 0.00 | 95 | 1010.8 |
| 20260906095003 | 72 | 78 | 5.0 | 8.0 | 0.00 | 0.30 | 0.00 | 95 | 1010.6 |
| 20260906094524 | 72 | 79 | 5.0 | 8.0 | 0.00 | 0.30 | 0.00 | 95 | 1010.6 |
| 20260906094003 | 72 | 82 | 4.0 | 7.0 | 0.00 | 0.30 | 0.00 | 95 | 1010.5 |
| 20260906093503 | 72 | 84 | 4.0 | 7.0 | 0.00 | 0.30 | 0.00 | 95 | 1010.5 |
| 20260906093003 | 72 | 92 | 3.0 | 7.0 | 0.00 | 0.30 | 0.00 | 94 | 1010.6 |
| 20260906092503 | 72 | 96 | 3.0 | 7.0 | 0.00 | 0.30 | 0.00 | 94 | 1010.5 |
| 20260906092003 | 72 | 51 | 2.0 | 6.0 | 0.00 | 0.30 | 0.00 | 94 | 1010.5 |
| 20260906091503 | 72 | 41 | 2.0 | 5.0 | 0.00 | 0.30 | 0.00 | 94 | 1010.7 |
| 20260906091003 | 72 | 32 | 2.0 | 5.0 | 0.00 | 0.30 | 0.00 | 94 | 1010.5 |
| 20260906090503 | 72 | 5 | 2.0 | 5.0 | 0.00 | 0.30 | 0.00 | 94 | 1010.5 |
| 20260906090003 | 72 | 50 | 2.0 | 5.0 | 0.00 | 0.30 | 0.00 | 94 | 1010.5 |
| 20260906085503 | 72 | 85 | 1.0 | 4.0 | 0.00 | 0.30 | 0.00 | 94 | 1010.4 |
| 20260906085003 | 72 | 120 | 1.0 | 2.0 | 0.00 | 0.30 | 0.00 | 94 | 1010.3 |
| 20260906084503 | 72 | 123 | 1.0 | 4.0 | 0.00 | 0.30 | 0.00 | 94 | 1010.2 |
| 20260906084024 | 72 | 85 | 2.0 | 5.0 | 0.00 | 0.30 | 0.00 | 94 | 1010.2 |
| 20260906083503 | 72 | 332 | 2.0 | 5.0 | 0.00 | 0.30 | 0.00 | 94 | 1010.4 |
| 20260906083003 | 72 | 281 | 1.0 | 2.0 | 0.00 | 0.30 | 0.00 | 94 | 1010.4 |
| 20260906082503 | 72 | 332 | 1.0 | 2.0 | 0.00 | 0.30 | 0.00 | 94 | 1010.3 |
| 20260906082024 | 72 | 298 | 1.0 | 2.0 | 0.00 | 0.30 | 0.00 | 94 | 1010.3 |
| 20260906081503 | 72 | 283 | 1.0 | 3.0 | 0.00 | 0.30 | 0.00 | 94 | 1010.3 |
| 20260906081003 | 72 | 323 | 1.0 | 4.0 | 0.00 | 0.30 | 0.00 | 94 | 1010.1 |
| 20260906080503 | 72 | 28 | 1.0 | 4.0 | 0.00 | 0.30 | 0.00 | 94 | 1010.1 |
| 20260906080003 | 72 | 77 | 1.0 | 5.0 | 0.00 | 0.30 | 0.00 | 94 | 1010.1 |
| 20260906075503 | 72 | 77 | 2.0 | 5.0 | 0.00 | 0.30 | 0.00 | 94 | 1010.0 |
| 20260906075003 | 72 | 71 | 3.0 | 6.0 | 0.00 | 0.30 | 0.00 | 94 | 1010.0 |
| 20260906074503 | 72 | 69 | 3.0 | 6.0 | 0.00 | 0.30 | 0.00 | 94 | 1010.0 |
| 20260906074003 | 72 | 65 | 3.0 | 7.0 | 0.00 | 0.30 | 0.00 | 94 | 1010.0 |
| 20260906073503 | 72 | 54 | 3.0 | 7.0 | 0.00 | 0.30 | 0.00 | 94 | 1010.1 |
| 20260906073003 | 72 | 21 | 2.0 | 6.0 | 0.00 | 0.30 | 0.00 | 94 | 1010.1 |
| 20260906072503 | 72 | 32 | 2.0 | 4.0 | 0.00 | 0.30 | 0.00 | 94 | 1010.1 |
| 20260906072003 | 72 | 55 | 2.0 | 4.0 | 0.00 | 0.30 | 0.00 | 94 | 1010.2 |
| 20260906071503 | 72 | 67 | 2.0 | 6.0 | 0.00 | 0.30 | 0.00 | 94 | 1010.1 |
| 20260906071003 | 72 | 67 | 2.0 | 6.0 | 0.00 | 0.30 | 0.00 | 94 | 1010.0 |
| 20260906070503 | 72 | 56 | 2.0 | 5.0 | 0.00 | 0.30 | 0.00 | 94 | 1010.1 |
| 20260906070003 | 72 | 45 | 2.0 | 5.0 | 0.00 | 0.30 | 0.00 | 94 | 1010.1 |
| 20260906065503 | 72 | 40 | 1.0 | 3.0 | 0.00 | 0.30 | 0.00 | 94 | 1010.2 |
| 20260906065003 | 72 | 72 | 2.0 | 4.0 | 0.00 | 0.30 | 0.00 | 94 | 1010.2 |
| 20260906064503 | 72 | 85 | 2.0 | 4.0 | 0.00 | 0.30 | 0.00 | 94 | 1010.1 |
| 20260906064003 | 72 | 60 | 2.0 | 3.0 | 0.00 | 0.30 | 0.00 | 94 | 1010.2 |
| 20260906063503 | 72 | 36 | 1.0 | 3.0 | 0.00 | 0.30 | 0.00 | 94 | 1010.3 |
| 20260906063003 | 72 | 38 | 1.0 | 3.0 | 0.00 | 0.30 | 0.00 | 94 | 1010.5 |
| 20260906062503 | 72 | 20 | 1.0 | 3.0 | 0.00 | 0.30 | 0.00 | 94 | 1010.4 |
| 20260906062003 | 72 | 27 | 1.0 | 2.0 | 0.00 | 0.30 | 0.00 | 93 | 1010.6 |
| 20260906061503 | 72 | 28 | 0.0 | 2.0 | 0.00 | 0.30 | 0.00 | 93 | 1010.7 |
| 20260906061003 | 72 | 15 | 1.0 | 2.0 | 0.00 | 0.30 | 0.00 | 93 | 1010.6 |
| 20260906060503 | 72 | 15 | 1.0 | 2.0 | 0.00 | 0.30 | 0.00 | 93 | 1010.7 |
| 20260906060003 | 72 | 26 | 1.0 | 2.0 | 0.00 | 0.30 | 0.00 | 93 | 1010.7 |
| 20260906055503 | 72 | 41 | 0.0 | 2.0 | 0.00 | 0.30 | 0.00 | 93 | 1010.7 |
| 20260906055003 | 72 | 95 | 1.0 | 3.0 | 0.00 | 0.30 | 0.00 | 93 | 1010.7 |
| 20260906054503 | 72 | 97 | 2.0 | 5.0 | 0.00 | 0.30 | 0.00 | 93 | 1010.7 |
| 20260906054003 | 72 | 97 | 2.0 | 5.0 | 0.00 | 0.30 | 0.00 | 93 | 1010.8 |
| 20260906053524 | 72 | 101 | 1.0 | 5.0 | 0.00 | 0.30 | 0.00 | 93 | 1010.9 |
| 20260906053003 | 72 | 119 | 0.0 | 3.0 | 0.00 | 0.30 | 0.00 | 93 | 1011.0 |
| 20260906052503 | 72 | 0 | 0.0 | 0.0 | 0.00 | 0.30 | 0.00 | 93 | 1010.9 |
| 20260906052003 | 73 | 0 | 0.0 | 0.0 | 0.00 | 0.30 | 0.00 | 92 | 1010.8 |
| 20260906051503 | 73 | 152 | 0.0 | 1.0 | 0.00 | 0.30 | 0.00 | 92 | 1010.8 |
| 20260906051003 | 73 | 152 | 0.0 | 1.0 | 0.00 | 0.30 | 0.00 | 92 | 1010.8 |
| 20260906050524 | 73 | 152 | 0.0 | 1.0 | 0.00 | 0.30 | 0.00 | 92 | 1010.9 |
| 20260906050003 | 73 | 152 | 0.0 | 1.0 | 0.00 | 0.30 | 0.00 | 92 | 1010.8 |
| 20260906045503 | 73 | 147 | 0.0 | 2.0 | 0.00 | 0.30 | 0.00 | 92 | 1010.8 |
| 20260906045003 | 73 | 126 | 1.0 | 3.0 | 0.00 | 0.30 | 0.00 | 92 | 1010.8 |
| 20260906044503 | 73 | 105 | 1.0 | 3.0 | 0.00 | 0.30 | 0.00 | 91 | 1010.7 |
| 20260906044024 | 73 | 101 | 2.0 | 5.0 | 0.00 | 0.30 | 0.00 | 91 | 1010.8 |
| 20260906043503 | 73 | 94 | 2.0 | 5.0 | 0.00 | 0.30 | 0.00 | 91 | 1010.7 |
| 20260906043003 | 73 | 69 | 0.0 | 3.0 | 0.00 | 0.30 | 0.00 | 90 | 1010.8 |
| 20260906042503 | 73 | 70 | 0.0 | 2.0 | 0.00 | 0.30 | 0.00 | 90 | 1010.8 |
| 20260906042003 | 73 | 82 | 0.0 | 2.0 | 0.00 | 0.30 | 0.00 | 90 | 1010.8 |
| 20260906041503 | 73 | 99 | 0.0 | 2.0 | 0.00 | 0.30 | 0.00 | 90 | 1010.7 |
| 20260906041003 | 73 | 107 | 0.0 | 2.0 | 0.00 | 0.30 | 0.00 | 89 | 1010.7 |
| 20260906040503 | 74 | 104 | 1.0 | 3.0 | 0.00 | 0.30 | 0.00 | 89 | 1010.6 |
| 20260906040003 | 74 | 103 | 2.0 | 3.0 | 0.00 | 0.30 | 0.00 | 89 | 1010.5 |
| 20260906035503 | 74 | 100 | 2.0 | 5.0 | 0.00 | 0.30 | 0.30 | 89 | 1010.4 |
| 20260906035003 | 74 | 99 | 2.0 | 5.0 | 0.00 | 0.30 | 0.30 | 89 | 1010.4 |
| 20260906034503 | 74 | 104 | 3.0 | 5.0 | 0.00 | 0.30 | 0.30 | 89 | 1010.3 |
| 20260906034003 | 74 | 107 | 3.0 | 5.0 | 0.00 | 0.30 | 0.30 | 89 | 1010.3 |
| 20260906033503 | 74 | 108 | 2.0 | 5.0 | 0.00 | 0.30 | 0.30 | 88 | 1010.3 |
| 20260906033003 | 74 | 101 | 3.0 | 6.0 | 0.00 | 0.30 | 0.30 | 88 | 1010.4 |
| 20260906032503 | 74 | 90 | 3.0 | 6.0 | 0.00 | 0.30 | 0.30 | 88 | 1010.4 |
| 20260906032003 | 74 | 74 | 2.0 | 5.0 | 0.00 | 0.30 | 0.30 | 88 | 1010.4 |
| 20260906031503 | 74 | 56 | 1.0 | 3.0 | 0.00 | 0.30 | 0.30 | 87 | 1010.4 |
| 20260906031003 | 75 | 56 | 1.0 | 3.0 | 0.00 | 0.30 | 0.30 | 86 | 1010.5 |
| 20260906030503 | 75 | 54 | 1.0 | 3.0 | 0.00 | 0.30 | 0.30 | 86 | 1010.5 |
| 20260906030024 | 75 | 56 | 2.0 | 3.0 | 0.00 | 0.30 | 0.30 | 86 | 1010.5 |
| 20260906025503 | 75 | 61 | 1.0 | 3.0 | 0.00 | 0.30 | 0.30 | 86 | 1010.5 |
| 20260906025024 | 76 | 51 | 1.0 | 2.0 | 0.00 | 0.30 | 0.30 | 84 | 1010.3 |
| 20260906024503 | 76 | 24 | 1.0 | 3.0 | 0.00 | 0.30 | 0.30 | 84 | 1010.2 |
| 20260906024003 | 76 | 49 | 2.0 | 5.0 | 0.00 | 0.30 | 0.30 | 84 | 1010.4 |
| 20260906023503 | 76 | 347 | 2.0 | 7.0 | 0.00 | 0.30 | 0.30 | 84 | 1010.2 |
| 20260906023003 | 76 | 355 | 3.0 | 7.0 | 0.00 | 0.30 | 0.30 | 84 | 1010.2 |
| 20260906022503 | 76 | 60 | 4.0 | 8.0 | 0.00 | 0.30 | 0.30 | 84 | 1010.5 |
| 20260906022003 | 76 | 91 | 4.0 | 8.0 | 0.00 | 0.30 | 0.30 | 84 | 1010.1 |
| 20260906021503 | 76 | 103 | 3.0 | 8.0 | 0.00 | 0.30 | 0.30 | 85 | 1010.3 |
| 20260906021003 | 76 | 106 | 3.0 | 8.0 | 0.00 | 0.30 | 0.30 | 87 | 1010.2 |
| 20260906020503 | 75 | 95 | 3.0 | 8.0 | 0.00 | 0.30 | 0.30 | 88 | 1010.3 |
| 20260906020003 | 74 | 85 | 2.0 | 6.0 | 0.00 | 0.30 | 0.30 | 90 | 1010.5 |
| 20260906015503 | 74 | 47 | 1.0 | 3.0 | 0.00 | 0.30 | 0.30 | 92 | 1010.3 |
| 20260906015004 | 75 | 8 | 1.0 | 2.0 | 0.00 | 0.30 | 0.30 | 92 | 1010.1 |
| 20260906014524 | 75 | 0 | 0.0 | 0.0 | 0.00 | 0.30 | 0.30 | 92 | 1010.1 |
| 20260906014003 | 75 | 0 | 0.0 | 0.0 | 0.00 | 0.30 | 0.30 | 91 | 1009.9 |
| 20260906013503 | 75 | 0 | 0.0 | 0.0 | 0.00 | 0.30 | 0.30 | 91 | 1009.9 |
| 20260906013003 | 75 | 0 | 0.0 | 0.0 | 0.00 | 0.30 | 0.30 | 90 | 1010.0 |
| 20260906012503 | 75 | 0 | 0.0 | 0.0 | 0.00 | 0.30 | 0.30 | 91 | 1009.9 |
| 20260906012003 | 75 | 77 | 0.0 | 1.0 | 0.00 | 0.30 | 0.30 | 90 | 1009.8 |
| 20260906011503 | 75 | 77 | 0.0 | 1.0 | 0.00 | 0.30 | 0.30 | 90 | 1009.7 |
| 20260906011024 | 75 | 78 | 0.0 | 1.0 | 0.00 | 0.30 | 0.30 | 90 | 1009.5 |
| 20260906010503 | 75 | 77 | 0.0 | 2.0 | 0.00 | 0.30 | 0.30 | 89 | 1009.4 |
| 20260906010003 | 76 | 77 | 0.0 | 2.0 | 0.00 | 0.30 | 0.30 | 90 | 1009.5 |
| 20260906005503 | 76 | 77 | 0.0 | 1.0 | 0.00 | 0.30 | 0.30 | 89 | 1009.6 |
| 20260906005003 | 76 | 77 | 0.0 | 1.0 | 0.00 | 0.30 | 0.30 | 88 | 1009.4 |
| 20260906004503 | 76 | 93 | 0.0 | 2.0 | 0.00 | 0.30 | 0.30 | 88 | 1009.4 |
| 20260906004003 | 76 | 96 | 1.0 | 2.0 | 0.00 | 0.30 | 0.30 | 88 | 1009.3 |
| 20260906003503 | 76 | 121 | 1.0 | 3.0 | 0.00 | 0.30 | 0.30 | 87 | 1009.3 |
| 20260906003003 | 76 | 237 | 1.0 | 3.0 | 0.00 | 0.30 | 0.30 | 88 | 1009.3 |
| 20260906002503 | 77 | 254 | 1.0 | 2.0 | 0.00 | 0.30 | 0.30 | 87 | 1009.2 |
| 20260906002003 | 77 | 254 | 0.0 | 2.0 | 0.00 | 0.30 | 0.30 | 85 | 1009.3 |
| 20260906001503 | 78 | 255 | 0.0 | 1.0 | 0.00 | 0.30 | 0.30 | 85 | 1009.1 |
| 20260906001003 | 78 | 235 | 0.0 | 2.0 | 0.00 | 0.30 | 0.30 | 83 | 1009.1 |
| 20260906000524 | 78 | 148 | 1.0 | 2.0 | 0.00 | 0.30 | 0.30 | 82 | 1009.3 |
| 20260906000003 | 79 | 125 | 1.0 | 2.0 | 0.00 | 0.30 | 0.30 | 81 | 1009.4 |
| 20260905235503 | 80 | 125 | 0.0 | 1.0 | 0.00 | 0.30 | 0.30 | 79 | 1009.6 |
| 20260905235003 | 80 | 125 | 0.0 | 1.0 | 0.00 | 0.30 | 0.30 | 77 | 1009.4 |
| 20260905234503 | 80 | 125 | 0.0 | 2.0 | 0.00 | 0.30 | 0.30 | 76 | 1009.5 |
| 20260905234003 | 80 | 117 | 0.0 | 2.0 | 0.00 | 0.30 | 0.30 | 73 | 1009.7 |
| 20260905233503 | 80 | 96 | 0.0 | 2.0 | 0.00 | 0.30 | 0.30 | 73 | 1009.6 |
| 20260905233024 | 81 | 71 | 1.0 | 5.0 | 0.00 | 0.30 | 0.30 | 73 | 1009.6 |
| 20260905232524 | 81 | 87 | 2.0 | 7.0 | 0.00 | 0.30 | 0.30 | 72 | 1009.7 |
| 20260905232003 | 81 | 95 | 4.0 | 8.0 | 0.00 | 0.30 | 0.30 | 71 | 1009.9 |
| 20260905231503 | 81 | 94 | 5.0 | 10.0 | 0.00 | 0.30 | 0.30 | 71 | 1010.0 |
| 20260905231003 | 82 | 94 | 6.0 | 10.0 | 0.00 | 0.30 | 0.30 | 70 | 1010.0 |
| 20260905230503 | 82 | 91 | 6.0 | 11.0 | 0.00 | 0.30 | 0.30 | 69 | 1010.0 |
| 20260905230024 | 83 | 93 | 6.0 | 11.0 | 0.00 | 0.30 | 0.30 | 68 | 1010.0 |
| 20260905225503 | 83 | 98 | 6.0 | 11.0 | 0.00 | 0.30 | 0.30 | 69 | 1010.1 |
| 20260905225024 | 84 | 96 | 6.0 | 13.0 | 0.00 | 0.30 | 0.30 | 67 | 1010.0 |
| 20260905224503 | 85 | 100 | 6.0 | 13.0 | 0.00 | 0.30 | 0.30 | 66 | 1009.8 |
| 20260905224003 | 86 | 99 | 6.0 | 10.0 | 0.00 | 0.30 | 0.30 | 66 | 1009.9 |
| 20260905223524 | 87 | 85 | 6.0 | 15.0 | 0.00 | 0.30 | 0.30 | 62 | 1009.7 |
| 20260905223003 | 90 | 34 | 4.0 | 15.0 | 0.00 | 0.30 | 0.30 | 59 | 1009.7 |
| 20260905222503 | 92 | 291 | 2.0 | 4.0 | 0.00 | 0.30 | 0.30 | 61 | 1009.5 |
| 20260905222003 | 92 | 288 | 2.0 | 5.0 | 0.00 | 0.30 | 0.30 | 61 | 1009.4 |
| 20260905221524 | 92 | 289 | 2.0 | 5.0 | 0.00 | 0.30 | 0.30 | 58 | 1009.4 |
| 20260905221003 | 92 | 302 | 1.0 | 3.0 | 0.00 | 0.30 | 0.30 | 61 | 1009.4 |
| 20260905220503 | 92 | 300 | 1.0 | 3.0 | 0.00 | 0.30 | 0.30 | 59 | 1009.4 |
| 20260905220024 | 92 | 293 | 1.0 | 3.0 | 0.00 | 0.30 | 0.30 | 60 | 1009.4 |
| 20260905215524 | 92 | 290 | 2.0 | 3.0 | 0.00 | 0.30 | 0.30 | 60 | 1009.4 |
| 20260905215003 | 93 | 293 | 2.0 | 4.0 | 0.00 | 0.30 | 0.30 | 59 | 1009.5 |
| 20260905214503 | 93 | 299 | 2.0 | 5.0 | 0.00 | 0.30 | 0.30 | 58 | 1009.6 |
| 20260905214003 | 93 | 298 | 2.0 | 5.0 | 0.00 | 0.30 | 0.30 | 57 | 1009.6 |
| 20260905213503 | 93 | 307 | 1.0 | 2.0 | 0.00 | 0.30 | 0.30 | 57 | 1009.4 |
| 20260905213003 | 93 | 288 | 2.0 | 5.0 | 0.00 | 0.30 | 0.30 | 58 | 1009.3 |
| 20260905212524 | 93 | 270 | 3.0 | 7.0 | 0.00 | 0.30 | 0.30 | 55 | 1009.3 |
| 20260905212003 | 93 | 281 | 2.0 | 7.0 | 0.00 | 0.30 | 0.30 | 55 | 1009.3 |
| 20260905211524 | 93 | 298 | 2.0 | 4.0 | 0.00 | 0.30 | 0.30 | 57 | 1009.4 |
| 20260905211003 | 94 | 295 | 2.0 | 4.0 | 0.00 | 0.30 | 0.30 | 57 | 1009.3 |
| 20260905210503 | 94 | 296 | 2.0 | 4.0 | 0.00 | 0.30 | 0.30 | 53 | 1009.5 |
| 20260905210003 | 94 | 293 | 3.0 | 5.0 | 0.00 | 0.30 | 0.30 | 57 | 1009.4 |
| 20260905205503 | 94 | 289 | 3.0 | 6.0 | 0.00 | 0.30 | 0.30 | 54 | 1009.4 |
| 20260905205003 | 94 | 287 | 2.0 | 6.0 | 0.00 | 0.30 | 0.30 | 53 | 1009.4 |
| 20260905204503 | 94 | 271 | 2.0 | 6.0 | 0.00 | 0.30 | 0.30 | 56 | 1009.4 |
| 20260905204003 | 94 | 259 | 2.0 | 6.0 | 0.00 | 0.30 | 0.30 | 52 | 1009.5 |
| 20260905203503 | 94 | 261 | 2.0 | 7.0 | 0.00 | 0.30 | 0.30 | 50 | 1009.5 |
| 20260905203003 | 94 | 251 | 2.0 | 7.0 | 0.00 | 0.30 | 0.30 | 51 | 1009.5 |
| 20260905202503 | 94 | 258 | 2.0 | 5.0 | 0.00 | 0.30 | 0.30 | 53 | 1009.6 |
| 20260905202003 | 94 | 259 | 2.0 | 6.0 | 0.00 | 0.30 | 0.30 | 50 | 1009.5 |
| 20260905201503 | 94 | 250 | 3.0 | 9.0 | 0.00 | 0.30 | 0.30 | 51 | 1009.7 |
| 20260905201024 | 94 | 255 | 2.0 | 9.0 | 0.00 | 0.30 | 0.30 | 51 | 1009.7 |
| 20260905200503 | 94 | 265 | 2.0 | 5.0 | 0.00 | 0.30 | 0.30 | 51 | 1009.8 |
| 20260905200003 | 94 | 262 | 3.0 | 8.0 | 0.00 | 0.30 | 0.30 | 50 | 1009.9 |
| 20260905195503 | 94 | 253 | 3.0 | 8.0 | 0.00 | 0.30 | 0.30 | 48 | 1010.0 |
| 20260905195004 | 94 | 247 | 3.0 | 7.0 | 0.00 | 0.30 | 0.30 | 48 | 1010.1 |
| 20260905194503 | 94 | 245 | 3.0 | 9.0 | 0.00 | 0.30 | 0.30 | 49 | 1010.2 |
| 20260905194003 | 94 | 255 | 3.0 | 9.0 | 0.00 | 0.30 | 0.30 | 50 | 1010.2 |
| 20260905193503 | 94 | 255 | 3.0 | 6.0 | 0.00 | 0.30 | 0.30 | 50 | 1010.4 |
| 20260905193003 | 93 | 248 | 2.0 | 6.0 | 0.00 | 0.30 | 0.30 | 51 | 1010.5 |
| 20260905192503 | 93 | 236 | 2.0 | 5.0 | 0.00 | 0.30 | 0.30 | 54 | 1010.5 |
| 20260905192003 | 93 | 223 | 2.0 | 6.0 | 0.00 | 0.30 | 0.30 | 50 | 1010.6 |
| 20260905191503 | 93 | 221 | 2.0 | 6.0 | 0.00 | 0.30 | 0.30 | 52 | 1010.6 |
| 20260905191003 | 92 | 217 | 2.0 | 8.0 | 0.00 | 0.30 | 0.30 | 53 | 1010.6 |
| 20260905190503 | 92 | 222 | 2.0 | 8.0 | 0.00 | 0.30 | 0.30 | 50 | 1010.5 |
| 20260905190024 | 92 | 237 | 3.0 | 9.0 | 0.00 | 0.30 | 0.30 | 53 | 1010.6 |
| 20260905185503 | 92 | 247 | 3.0 | 9.0 | 0.00 | 0.30 | 0.30 | 51 | 1010.7 |
| 20260905185024 | 92 | 245 | 3.0 | 7.0 | 0.00 | 0.30 | 0.30 | 54 | 1010.6 |
| 20260905184503 | 92 | 242 | 3.0 | 7.0 | 0.00 | 0.30 | 0.30 | 59 | 1010.6 |
| 20260905184003 | 92 | 240 | 3.0 | 7.0 | 0.00 | 0.30 | 0.30 | 55 | 1010.7 |
| 20260905183503 | 92 | 242 | 3.0 | 7.0 | 0.00 | 0.30 | 0.30 | 54 | 1010.8 |
| 20260905183003 | 92 | 242 | 2.0 | 5.0 | 0.00 | 0.30 | 0.30 | 53 | 1011.0 |
| 20260905182503 | 92 | 228 | 1.0 | 5.0 | 0.00 | 0.30 | 0.30 | 54 | 1011.0 |
| 20260905182003 | 91 | 213 | 2.0 | 5.0 | 0.00 | 0.30 | 0.30 | 54 | 1011.1 |
| 20260905181503 | 91 | 211 | 2.0 | 4.0 | 0.00 | 0.30 | 0.30 | 53 | 1011.1 |